GW6359 Weather Reports


time (UTC)temp
C
wind
direction
speed
KPH
gust
KPH
rain 1hr
cm
rain 24hr
cm
rain mn
cm
humidity
%
barometer
mb
20260510045003 23 218 0.0 1.6 0.00 1.35 0.00 82 1010.3
20260510044503 23 209 0.0 1.6 0.00 1.35 0.00 82 1010.1
20260510044003 23 198 0.0 1.6 0.00 1.35 0.00 82 1009.9
20260510043503 23 176 0.0 3.2 0.00 1.35 0.00 82 1010.3
20260510043003 23 188 0.0 4.8 0.00 1.35 0.00 82 1010.1
20260510042718 23 189 0.0 4.8 0.00 1.35 0.00 82 1010.0
20260510042003 23 204 0.0 4.8 0.00 1.35 0.00 84 1010.1
20260510041503 23 223 0.0 1.6 0.00 1.35 0.00 85 1010.1
20260510041003 23 66 0.0 1.6 0.00 1.35 0.00 85 1009.9
20260510040503 23 155 0.0 1.6 0.00 1.35 0.00 85 1009.8
20260510040003 23 224 0.0 1.6 0.00 1.35 0.00 86 1009.8
20260510035503 23 262 0.0 1.6 0.00 1.35 0.00 86 1009.7
20260510035003 23 246 0.0 3.2 0.00 1.35 0.00 86 1009.9
20260510034503 23 243 0.0 3.2 0.00 1.35 0.00 85 1009.7
20260510034217 23 244 0.0 3.2 0.00 1.35 0.00 85 1009.7
20260510033503 23 0 0.0 0.0 0.00 1.35 0.00 84 1009.6
20260510033217 23 0 0.0 0.0 0.00 1.35 0.00 84 1009.5
20260510032503 24 0 0.0 0.0 0.00 1.35 0.00 83 1009.5
20260510032003 24 288 0.0 1.6 0.00 1.35 0.00 82 1009.7
20260510031503 24 288 0.0 1.6 0.00 1.35 0.00 82 1009.5
20260510031003 25 308 0.0 1.6 0.00 1.35 0.00 81 1009.3
20260510030503 25 309 0.0 1.6 0.00 1.35 0.00 81 1009.3
20260510030003 25 263 0.0 1.6 0.00 1.35 0.00 80 1009.3
20260510025503 25 230 0.0 1.6 0.00 1.35 0.00 79 1009.0
20260510025003 25 226 0.0 1.6 0.00 1.35 0.00 78 1009.2
20260510024503 25 230 0.0 3.2 0.00 1.35 0.00 78 1009.0
20260510024003 25 212 0.0 3.2 0.00 1.35 0.00 77 1009.0
20260510023503 26 193 0.0 4.8 0.00 1.35 0.00 77 1008.7
20260510023003 26 211 1.6 4.8 0.00 1.35 0.00 77 1008.8
20260510022503 26 214 1.6 4.8 0.00 1.35 0.00 77 1008.8
20260510022003 26 208 1.6 4.8 0.00 1.35 0.00 76 1008.7
20260510021503 26 211 1.6 4.8 0.00 1.35 0.00 76 1008.7
20260510021003 26 209 0.0 3.2 0.00 1.35 0.00 75 1008.5
20260510020503 26 208 0.0 3.2 0.00 1.35 0.00 75 1008.5
20260510020003 26 213 1.6 3.2 0.00 1.35 0.00 74 1008.5
20260510015717 27 208 1.6 4.8 0.00 1.35 0.00 74 1008.4
20260510015003 27 198 1.6 8.0 0.00 1.35 0.00 73 1008.2
20260510014717 27 196 1.6 8.0 0.00 1.35 0.00 72 1008.4
20260510014003 27 238 1.6 4.8 0.00 1.35 0.00 71 1008.2
20260510013503 27 225 0.0 3.2 0.00 1.35 0.00 70 1008.2
20260510013218 27 215 0.0 3.2 0.00 1.35 0.00 69 1008.0
20260510012503 27 210 0.0 3.2 0.00 1.35 0.00 69 1008.1
20260510012003 28 220 0.0 1.6 0.00 1.35 0.00 68 1008.1
20260510011503 28 227 0.0 3.2 0.00 1.35 0.00 67 1007.8
20260510011003 28 239 1.6 4.8 0.00 1.35 0.00 67 1007.9
20260510010503 28 232 1.6 4.8 0.00 1.35 0.00 65 1007.9
20260510010003 28 234 1.6 3.2 0.00 1.35 0.00 65 1007.8
20260510005503 29 239 1.6 3.2 0.00 1.35 0.00 64 1007.8
20260510005218 29 228 1.6 3.2 0.00 1.35 0.00 64 1007.8
20260510004503 30 207 1.6 3.2 0.00 1.35 0.00 61 1007.8
20260510004003 30 204 1.6 3.2 0.00 1.35 0.00 61 1007.7
20260510003503 30 209 0.0 3.2 0.00 1.35 0.00 60 1007.7
20260510003217 30 207 0.0 4.8 0.00 1.35 0.00 59 1007.7
20260510002503 30 213 1.6 4.8 0.00 1.35 0.00 58 1007.8
20260510002003 31 212 1.6 6.4 0.00 1.35 0.00 58 1007.6
20260510001716 31 209 1.6 6.4 0.00 1.35 0.00 59 1007.7
20260510001003 31 217 3.2 6.4 0.00 1.35 0.00 58 1007.6
20260510000503 31 214 1.6 6.4 0.00 1.35 0.00 58 1007.2
20260510000219 31 217 1.6 4.8 0.00 1.35 0.00 57 1007.5
20260509235503 31 224 1.6 4.8 0.00 1.35 0.00 56 1007.5
20260509235003 31 209 1.6 4.8 0.00 1.35 0.00 56 1007.3
20260509234716 31 213 1.6 6.4 0.00 1.35 0.00 56 1007.3
20260509234003 31 221 3.2 6.4 0.00 1.35 0.00 55 1007.3
20260509233503 31 209 1.6 6.4 0.00 1.35 0.00 55 1007.3
20260509233003 31 205 1.6 4.8 0.00 1.35 0.00 55 1007.2
20260509232503 31 218 1.6 6.4 0.00 1.35 0.00 54 1007.3
20260509232003 31 235 1.6 6.4 0.00 1.35 0.00 54 1007.2
20260509231503 31 263 1.6 4.8 0.00 1.35 0.00 53 1007.1
20260509231217 30 279 1.6 4.8 0.00 1.35 0.00 54 1007.2
20260509230718 30 273 0.0 3.2 0.00 1.35 0.00 54 1007.1
20260509230003 30 247 1.6 6.4 0.00 1.35 0.00 54 1007.2
20260509225503 30 268 1.6 6.4 0.00 1.35 1.35 54 1007.4
20260509225003 30 275 1.6 3.2 0.00 1.35 1.35 54 1007.2
20260509224503 29 223 1.6 3.2 0.00 1.35 1.35 53 1007.3
20260509224004 28 259 1.6 3.2 0.00 1.35 1.35 55 1007.3
20260509223503 28 196 1.6 6.4 0.00 1.35 1.35 55 1007.3
20260509223003 28 179 1.6 6.4 0.00 1.35 1.35 53 1007.3
20260509222503 28 190 1.6 6.4 0.00 1.35 1.35 53 1007.2
20260509222003 28 195 1.6 3.2 0.00 1.35 1.35 49 1007.3
20260509221503 28 187 1.6 3.2 0.00 1.35 1.35 53 1007.3
20260509221003 27 198 1.6 4.8 0.00 1.35 1.35 50 1007.3
20260509220503 27 214 1.6 6.4 0.00 1.35 1.35 48 1007.1
20260509220216 27 187 1.6 6.4 0.00 1.35 1.35 48 1007.2
20260509215503 27 213 1.6 4.8 0.00 1.35 1.35 51 1007.3
20260509215216 28 228 1.6 4.8 0.00 1.35 1.35 53 1007.5
20260509214503 28 230 3.2 6.4 0.00 1.35 1.35 52 1007.6
20260509214003 27 215 3.2 9.7 0.00 1.35 1.35 52 1007.6
20260509213503 27 198 3.2 9.7 0.00 1.35 1.35 55 1007.7
20260509213216 27 206 3.2 9.7 0.00 1.35 1.35 55 1007.8
20260509212503 27 224 3.2 8.0 0.00 1.35 1.35 57 1007.8
20260509212003 26 230 1.6 6.4 0.00 1.35 1.35 60 1007.8
20260509211503 26 209 1.6 4.8 0.00 1.35 1.35 61 1008.0
20260509211003 26 200 1.6 6.4 0.00 1.35 1.35 61 1007.9
20260509210503 26 180 1.6 6.4 0.00 1.35 1.35 62 1008.0
20260509210218 26 186 1.6 6.4 0.00 1.35 1.35 64 1008.2
20260509205503 25 195 3.2 8.0 0.30 1.35 1.35 65 1008.1
20260509205003 25 219 3.2 9.7 0.74 1.35 1.35 71 1007.9
20260509204717 25 219 3.2 9.7 0.86 1.35 1.35 71 1008.0
20260509204003 24 210 1.6 6.4 1.19 1.35 1.35 76 1008.2
20260509203503 23 224 0.0 3.2 1.30 1.35 1.35 77 1007.9
20260509203003 22 224 0.0 3.2 1.30 1.35 1.35 85 1007.9
20260509202717 22 225 0.0 3.2 1.30 1.35 1.35 90 1008.1
20260509202003 22 257 1.6 3.2 1.30 1.35 1.35 90 1008.2
20260509201503 20 237 1.6 6.4 1.30 1.35 1.35 92 1008.3
20260509201003 20 244 3.2 8.0 1.30 1.35 1.35 88 1008.4
20260509200503 20 247 3.2 8.0 1.30 1.35 1.35 84 1008.9
20260509200003 21 275 3.2 12.9 1.27 1.32 1.32 89 1009.3
20260509195503 22 46 4.8 12.9 0.99 1.04 1.04 87 1009.7
20260509195218 22 25 6.4 14.5 0.79 0.84 0.84 87 1009.8
20260509194503 22 12 8.0 17.7 0.41 0.46 0.46 78 1008.8
20260509194003 26 9 4.8 17.7 0.10 0.15 0.15 60 1009.2
20260509193503 29 8 1.6 14.5 0.00 0.05 0.05 55 1008.8
20260509193003 30 116 1.6 6.4 0.00 0.05 0.05 66 1008.8
20260509192503 30 188 3.2 6.4 0.00 0.05 0.05 64 1008.5
20260509192218 30 184 3.2 6.4 0.00 0.05 0.05 63 1008.4
20260509191503 31 116 1.6 8.0 0.00 0.05 0.05 62 1008.7
20260509191003 31 119 1.6 8.0 0.00 0.05 0.05 64 1008.7
20260509190503 31 109 1.6 8.0 0.00 0.05 0.05 62 1008.7
20260509190003 31 153 3.2 9.7 0.00 0.05 0.05 61 1008.6
20260509185503 32 239 3.2 11.3 0.00 0.05 0.05 57 1008.9
20260509185003 32 250 3.2 12.9 0.00 0.05 0.05 55 1008.7
20260509184503 32 252 3.2 12.9 0.00 0.05 0.05 59 1008.8
20260509184003 31 251 3.2 8.0 0.00 0.05 0.05 57 1009.0
20260509183503 31 270 3.2 9.7 0.00 0.05 0.05 58 1009.0
20260509183217 32 267 3.2 9.7 0.00 0.05 0.05 59 1009.2
20260509182503 31 238 3.2 8.0 0.00 0.05 0.05 60 1009.4
20260509182003 31 241 3.2 11.3 0.00 0.05 0.05 59 1009.6
20260509181503 31 255 4.8 11.3 0.00 0.05 0.05 60 1009.4
20260509181003 31 241 4.8 11.3 0.00 0.05 0.05 58 1009.5
20260509180503 31 179 1.6 8.0 0.00 0.05 0.05 61 1009.5
20260509180003 31 201 1.6 8.0 0.00 0.05 0.05 61 1009.5
20260509175503 31 239 3.2 8.0 0.00 0.05 0.05 60 1009.3
20260509175003 30 254 3.2 12.9 0.00 0.05 0.05 62 1009.7
20260509174503 30 260 4.8 12.9 0.00 0.05 0.05 64 1009.8
20260509174003 30 270 3.2 12.9 0.00 0.05 0.05 62 1009.9
20260509173503 30 265 1.6 8.0 0.00 0.05 0.05 62 1010.0
20260509173003 31 220 3.2 6.4 0.00 0.05 0.05 63 1010.1
20260509172503 30 226 1.6 6.4 0.00 0.05 0.05 62 1010.5
20260509172003 31 257 3.2 8.0 0.00 0.05 0.05 62 1010.3
20260509171503 30 253 3.2 8.0 0.00 0.05 0.05 63 1010.1
20260509171003 30 255 3.2 9.7 0.00 0.05 0.05 66 1010.0
20260509170718 30 234 3.2 9.7 0.00 0.05 0.05 66 1010.1
20260509170217 30 244 3.2 8.0 0.00 0.05 0.05 65 1010.0
20260509165718 30 246 3.2 11.3 0.00 0.05 0.05 65 1009.9
20260509165003 29 243 4.8 11.3 0.00 0.05 0.05 67 1010.1
20260509164503 29 249 3.2 9.7 0.00 0.05 0.05 66 1010.3
20260509164216 30 237 3.2 12.9 0.00 0.05 0.05 67 1010.3
20260509163503 30 235 3.2 12.9 0.00 0.05 0.05 67 1010.4
20260509163003 29 239 3.2 8.0 0.00 0.05 0.05 67 1010.4
20260509162503 30 254 3.2 6.4 0.00 0.05 0.05 66 1010.5
20260509162216 30 253 3.2 8.0 0.00 0.05 0.05 67 1010.5
20260509161503 29 229 3.2 8.0 0.00 0.05 0.05 69 1010.4
20260509161003 29 209 3.2 6.4 0.00 0.05 0.05 68 1010.4
20260509160503 28 244 3.2 6.4 0.00 0.05 0.05 69 1010.4
20260509160003 28 259 3.2 8.0 0.00 0.05 0.05 72 1010.4
20260509155503 28 265 3.2 8.0 0.00 0.05 0.05 73 1010.4
20260509155003 28 244 3.2 8.0 0.00 0.05 0.05 72 1010.1
20260509154503 27 224 3.2 8.0 0.00 0.05 0.05 72 1010.0
20260509154003 27 240 3.2 8.0 0.00 0.05 0.05 75 1010.3
20260509153503 27 236 3.2 8.0 0.00 0.05 0.05 77 1010.3
20260509153003 26 231 3.2 8.0 0.00 0.05 0.05 79 1010.1
20260509152503 26 229 3.2 6.4 0.00 0.05 0.05 79 1010.4
20260509152218 25 231 3.2 8.0 0.00 0.05 0.05 81 1010.5
20260509151503 25 230 1.6 8.0 0.00 0.05 0.05 85 1010.5
20260509151218 25 219 1.6 8.0 0.00 0.05 0.05 84 1010.4
20260509150503 25 169 1.6 8.0 0.00 0.05 0.05 86 1010.4
20260509150003 25 183 1.6 8.0 0.00 0.05 0.05 85 1010.5
20260509145503 25 206 1.6 6.4 0.00 0.05 0.05 85 1010.4
20260509145003 25 216 1.6 8.0 0.00 0.05 0.05 87 1010.4
20260509144503 23 198 3.2 8.0 0.00 0.05 0.05 90 1010.3
20260509144003 23 174 3.2 8.0 0.00 0.05 0.05 93 1010.1
20260509143503 23 137 3.2 8.0 0.00 0.05 0.05 93 1010.0
20260509143003 23 121 3.2 9.7 0.00 0.05 0.05 94 1010.0
20260509142503 23 162 3.2 9.7 0.00 0.05 0.05 94 1010.0
20260509142003 23 197 3.2 12.9 0.00 0.05 0.05 94 1009.8
20260509141503 23 187 4.8 12.9 0.00 0.05 0.05 93 1009.5
20260509141003 23 185 4.8 12.9 0.00 0.05 0.05 92 1009.6
20260509140717 23 195 4.8 12.9 0.00 0.05 0.05 92 1009.7
20260509140003 23 207 4.8 12.9 0.00 0.05 0.05 93 1009.7
20260509135503 23 200 1.6 8.0 0.00 0.05 0.05 94 1009.8
20260509135218 23 208 1.6 6.4 0.00 0.05 0.05 95 1009.7
20260509134503 22 223 1.6 6.4 0.00 0.05 0.05 95 1009.8
20260509134003 22 204 1.6 4.8 0.00 0.05 0.05 95 1010.0
20260509133503 23 212 1.6 4.8 0.00 0.05 0.05 96 1010.4
20260509133003 23 224 1.6 6.4 0.00 0.05 0.05 96 1010.3
20260509132503 22 241 3.2 8.0 0.00 0.05 0.05 97 1010.0
20260509132003 22 253 3.2 8.0 0.00 0.05 0.05 97 1010.1
20260509131503 22 302 1.6 6.4 0.00 0.05 0.05 97 1010.0
20260509131217 22 310 1.6 6.4 0.00 0.05 0.05 97 1010.1
20260509130503 22 318 1.6 4.8 0.00 0.05 0.05 97 1009.8
20260509130003 22 343 1.6 3.2 0.00 0.05 0.05 97 1009.8
20260509125503 22 340 1.6 4.8 0.00 0.05 0.05 97 1009.8
20260509125003 22 4 1.6 4.8 0.00 0.05 0.05 97 1009.7
20260509124503 22 89 0.0 3.2 0.00 0.05 0.05 97 1009.6
20260509124003 22 48 0.0 3.2 0.00 0.05 0.05 97 1009.6
20260509123503 22 320 1.6 4.8 0.00 0.05 0.05 97 1009.5
20260509123003 22 271 1.6 4.8 0.00 0.05 0.05 97 1009.6
20260509122503 22 224 1.6 6.4 0.00 0.05 0.05 98 1009.7
20260509122217 22 201 1.6 6.4 0.00 0.05 0.05 98 1009.9
20260509121503 22 186 1.6 4.8 0.00 0.05 0.05 97 1009.7
20260509121003 22 304 1.6 4.8 0.00 0.05 0.05 97 1009.9
20260509120503 22 256 1.6 4.8 0.00 0.05 0.05 97 1009.8
20260509120003 22 292 3.2 4.8 0.00 0.05 0.05 98 1010.0
20260509115503 22 13 3.2 4.8 0.00 0.05 0.05 98 1009.9
20260509115003 22 181 1.6 4.8 0.00 0.05 0.05 98 1009.7
20260509114503 22 178 1.6 8.0 0.00 0.05 0.05 97 1009.9
20260509114217 22 24 1.6 8.0 0.00 0.05 0.05 98 1009.8
20260509113503 22 358 3.2 8.0 0.00 0.05 0.05 98 1010.1
20260509113003 22 347 3.2 8.0 0.00 0.05 0.05 98 1010.6
20260509112503 22 351 3.2 8.0 0.00 0.05 0.05 98 1010.5
20260509112003 22 24 1.6 4.8 0.00 0.05 0.05 98 1010.6
20260509111718 22 259 1.6 4.8 0.00 0.05 0.05 98 1010.6
20260509111003 22 290 1.6 6.4 0.00 0.05 0.05 98 1010.5
20260509110503 22 313 1.6 6.4 0.00 0.05 0.05 98 1010.7
20260509110003 22 325 3.2 6.4 0.00 0.05 0.05 98 1010.7
20260509105717 22 297 1.6 6.4 0.00 0.05 0.05 98 1010.7
20260509105216 22 207 1.6 4.8 0.00 0.05 0.05 97 1010.5
20260509104717 22 199 1.6 4.8 0.00 0.05 0.05 97 1010.8
20260509104003 22 314 3.2 8.0 0.00 0.05 0.05 97 1010.8
20260509103503 22 345 3.2 8.0 0.00 0.05 0.05 97 1011.1
20260509103003 22 353 3.2 6.4 0.00 0.05 0.05 97 1010.8
20260509102503 22 330 3.2 8.0 0.00 0.05 0.05 97 1010.9
20260509102003 22 7 3.2 8.0 0.00 0.05 0.05 97 1010.8
20260509101503 22 354 1.6 8.0 0.00 0.05 0.05 97 1010.6
20260509101003 22 336 1.6 6.4 0.00 0.05 0.05 97 1010.4
20260509100503 22 343 1.6 6.4 0.00 0.05 0.05 97 1009.9
20260509100004 22 154 1.6 4.8 0.00 0.05 0.05 97 1009.5
20260509095503 22 337 1.6 6.4 0.00 0.05 0.05 97 1009.4
20260509095003 22 7 3.2 6.4 0.00 0.05 0.05 97 1009.2
20260509094717 22 355 3.2 6.4 0.00 0.05 0.05 97 1009.3
20260509094003 22 54 1.6 6.4 0.00 0.05 0.05 97 1009.5
20260509093503 22 25 1.6 6.4 0.03 0.05 0.05 97 1009.5
20260509093003 22 352 0.0 4.8 0.03 0.05 0.05 97 1009.5
20260509092717 22 92 0.0 3.2 0.03 0.05 0.05 97 1009.4
20260509092003 22 7 0.0 3.2 0.03 0.05 0.05 97 1009.3
20260509091717 22 341 0.0 3.2 0.03 0.05 0.05 97 1009.4
20260509091218 22 327 0.0 3.2 0.05 0.05 0.05 97 1009.2
20260509090503 22 7 0.0 3.2 0.05 0.05 0.05 97 1009.2
20260509090003 22 92 0.0 3.2 0.05 0.05 0.05 97 1009.2
20260509085503 22 319 0.0 3.2 0.05 0.05 0.05 97 1009.3
20260509085003 22 157 0.0 3.2 0.05 0.05 0.05 97 1009.4
20260509084503 22 72 0.0 3.2 0.05 0.05 0.05 97 1009.3
20260509084003 22 82 0.0 3.2 0.05 0.05 0.05 96 1009.4
20260509083503 22 56 0.0 3.2 0.03 0.03 0.03 96 1009.5
20260509083003 22 105 0.0 4.8 0.03 0.03 0.03 96 1009.6
20260509082503 22 131 0.0 4.8 0.03 0.03 0.03 96 1009.7
20260509082003 22 135 1.6 4.8 0.03 0.03 0.03 96 1010.0
20260509081503 22 148 1.6 4.8 0.00 0.00 0.00 96 1010.1
20260509081003 22 73 1.6 4.8 0.00 0.00 0.00 96 1009.8
20260509080716 22 3 1.6 4.8 0.00 0.00 0.00 96 1009.8
20260509080003 22 347 1.6 4.8 0.00 0.00 0.00 96 1009.9
20260509075503 22 16 0.0 4.8 0.00 0.00 0.00 96 1009.7
20260509075003 22 21 0.0 4.8 0.00 0.00 0.00 95 1009.6
20260509074503 22 150 1.6 4.8 0.00 0.00 0.00 95 1009.7
20260509074003 22 139 1.6 3.2 0.00 0.00 0.00 95 1009.8
20260509073503 22 72 0.0 1.6 0.00 0.00 0.00 95 1009.7
20260509073003 22 50 0.0 1.6 0.00 0.00 0.00 95 1009.9
20260509072503 22 9 0.0 1.6 0.00 0.00 0.00 95 1009.9
20260509072217 22 42 0.0 1.6 0.00 0.00 0.00 95 1009.8
20260509071503 22 94 0.0 3.2 0.00 0.00 0.00 95 1010.0
20260509071003 22 258 0.0 3.2 0.00 0.00 0.00 95 1010.0
20260509070503 22 277 0.0 3.2 0.00 0.00 0.00 94 1010.0
20260509070003 22 275 0.0 3.2 0.00 0.00 0.00 94 1010.0
20260509065503 22 199 0.0 4.8 0.00 0.00 0.00 94 1009.7
20260509065003 22 171 1.6 4.8 0.00 0.00 0.00 94 1009.7
20260509064503 22 185 1.6 4.8 0.00 0.00 0.00 94 1009.5
20260509064003 22 175 1.6 6.4 0.00 0.00 0.00 94 1009.4
20260509063503 22 178 1.6 6.4 0.00 0.00 0.00 93 1009.7
20260509063003 22 203 1.6 6.4 0.00 0.00 0.00 93 1009.8
20260509062503 22 192 0.0 4.8 0.00 0.00 0.00 93 1009.8
20260509062003 22 192 1.6 4.8 0.00 0.00 0.00 93 1009.6
20260509061718 22 190 1.6 6.4 0.00 0.00 0.00 93 1009.4
20260509061003 22 183 3.2 8.0 0.00 0.00 0.00 92 1009.2
20260509060503 22 184 3.2 8.0 0.00 0.00 0.00 92 1009.5
20260509060003 22 195 3.2 8.0 0.00 0.00 0.00 92 1009.3
20260509055503 22 193 3.2 8.0 0.00 0.00 0.00 91 1009.4
20260509055003 22 183 3.2 9.7 0.00 0.00 0.00 91 1009.7
20260509054503 22 201 1.6 9.7 0.00 0.00 0.00 91 1009.5
20260509054003 22 210 3.2 9.7 0.00 0.00 0.00 91 1009.5
20260509053503 23 189 3.2 9.7 0.00 0.00 0.00 90 1009.4
20260509053003 23 197 3.2 9.7 0.00 0.00 0.00 90 1009.0
20260509052503 23 187 3.2 11.3 0.00 0.00 0.00 90 1009.1
20260509052003 23 174 1.6 11.3 0.00 0.00 0.00 90 1009.0
20260509051503 23 187 1.6 8.0 0.00 0.00 0.00 90 1009.0
20260509051003 22 197 1.6 4.8 0.00 0.00 0.00 90 1008.9
20260509050717 22 192 1.6 4.8 0.00 0.00 0.00 90 1009.0
20260509050003 22 196 0.0 3.2 0.00 0.00 0.00 90 1009.1
20260509045503 22 200 0.0 3.2 0.00 0.00 0.00 90 1008.9